sat.trackr.live / text

‹ back to catalog

STARLINK-35846

NORAD 66367 · 2025-254V

PAYLOAD ACTIVE UNKNOWN

§ Identity

Operator
Country
US
Launch date
2025-11-06
Launch site
AFWTR
Launch vehicle
Mass (kg)
RCS (m²)

Purposes: comms

External: N2YO · Heavens-Above · Gunter

§ Orbital elements

Epoch: 2026-05-24T17:39:51.448896Z

Period
94.11 min
Inclination
53.1593°
Eccentricity
0.0001120
Mean motion
15.30201715 rev/d
Perigee alt
474.4 km
Apogee alt
476.0 km
Semi-major
6,853.3 km
B*
3.4356e-4
RAAN
238.8716°
Arg perigee
70.4551°
Mean anomaly
289.6570°
Rev number
3,062

§ Raw data

STARLINK-358461 66367U 25254V   26144.73601214  .00009830  00000+0  34356-3 0  99902 66367  53.1593 238.8716 0001120  70.4551 289.6570 15.30201715 30620

JSON: /api/v1/satellites/66367 · /tle

For live sub-satellite position, see the globe view (requires WebGL).

§ Visibility from observer

Set your observer location to see the next 7 days of passes ≥ 10°. The values pass through the URL so the page stays shareable.

No JS? Fill the form by hand. The geolocation button needs JavaScript.